Location: West Cummington
(42.4920°N, 72.9680°W)
Time: 11:11:28
(UTC-04:00)

Cosmos 2221 - Visible Passes

Search period start: 18 April 2015 00:00
Search period end: 28 April 2015 00:00
Orbit: 595 x 621 km, 82.5° (Epoch: 17 April)

Date Brightness Start Highest point End Pass type
(mag) Time Alt. Az. Time Alt. Az. Time Alt. Az.
18 Apr 3.3 03:56:54 10° N 04:01:05 51° ENE 04:05:16 10° SSE visible
18 Apr 4.3 05:36:11 10° NW 05:38:19 13° W 05:40:16 10° WSW visible
19 Apr 2.4 04:10:39 10° N 04:14:57 90° NE 04:18:07 18° S visible
20 Apr 5.3 02:48:29 10° NE 02:50:42 14° ENE 02:53:04 10° ESE visible
20 Apr 2.6 04:24:34 10° NNW 04:28:45 51° W 04:31:02 24° SSW visible
21 Apr 4.7 03:01:24 10° NNE 03:04:48 23° ENE 03:07:13 15° ESE visible
21 Apr 3.4 04:38:44 10° NNW 04:42:29 29° W 04:44:06 23° SW visible
22 Apr 3.8 03:14:47 10° N 03:18:47 38° ENE 03:20:22 28° ESE visible
22 Apr 4.0 04:53:14 10° NW 04:56:11 18° W 04:57:15 16° WSW visible
23 Apr 2.7 03:28:24 10° N 03:32:41 67° E 03:33:36 51° SE visible
23 Apr 4.6 05:09:08 10° WNW 05:09:49 10° W 05:10:15 10° W visible
24 Apr 5.4 02:07:23 10° NE 02:08:14 11° ENE 02:09:21 10° E visible
24 Apr 2.4 03:42:13 10° NNW 03:46:30 70° W 03:46:53 65° SW visible
25 Apr 4.9 02:19:30 10° NNE 02:22:23 18° ENE 02:23:21 17° E visible
25 Apr 3.0 03:56:14 10° NNW 04:00:14 39° W 04:00:14 39° W visible
26 Apr 4.1 02:32:40 10° NNE 02:36:25 29° ENE 02:36:44 29° E visible
26 Apr 3.8 04:10:30 10° NW 04:13:37 23° W 04:13:37 23° W visible
27 Apr 3.3 02:46:10 10° N 02:50:09 48° ENE 02:50:09 48° ENE visible
27 Apr 4.4 04:25:17 10° NW 04:27:03 14° WNW 04:27:03 14° WNW visible
